Regional Weather Roundup
Issued by NWS

Home | Current Version | Previous Version | Graphics & Text | Print | Product List | Glossary On
Versions: 1 2 3 4 5 6 7 8 9 10 11 12 13 14 15 16 17 18 19 20 21 22 23 24 25 26 27 28 29 30 31 32 33 34 35 36 37 38 39 40 41 42 43 44 45 46 47 48 49 50
000
ASUS43 KLOT 251309
RWRIL

ILLINOIS REGIONAL WEATHER ROUNDUP
NATIONAL WEATHER SERVICE CHICAGO/ROMEOVILLE IL
800 AM CDT SUN JUN 25 2017

NOTE: "FAIR" INDICATES FEW OR NO CLOUDS BELOW 12,000 FEET WITH NO
SIGNIFICANT WEATHER AND/OR OBSTRUCTIONS TO VISIBILITY.

* THESE STATIONS ARE NOT UNDER NWS QUALITY CONTROL. THEY ALSO MAY NOT
  REPORT WEATHER SUCH AS PRECIPITATION OR FOG.

ILZ001-002-007-009-015-016-024-251400-
NORTHWEST ILLINOIS

CITY           SKY/WX    TMP DP  RH WIND       PRES   REMARKS
MOLINE         SUNNY     62  49  62 W10       30.17R
STERLING*      SUNNY     60  52  74 W9        30.15R
SAVANNA*       SUNNY     59  49  68 W8        30.14S
$$

ILZ003-004-008-010-011-017-018-251400-
NORTH CENTRAL ILLINOIS

CITY           SKY/WX    TMP DP  RH WIND       PRES   REMARKS
ROCKFORD       SUNNY     59  50  72 W13       30.13S
FREEPORT*      SUNNY     56  51  81 W8        30.14S
ROCHELLE*      SUNNY     58  51  76 W15       30.14R
DE KALB*       SUNNY     58  51  76 W9        30.12R
PERU*          SUNNY     60  49  67 W10       30.15R
$$

ILZ005-006-012>014-019>023-251400-
NORTHEAST ILLINOIS

CITY           SKY/WX    TMP DP  RH WIND       PRES   REMARKS
CHICAGO-OHARE  MOSUNNY   60  49  66 W12       30.10R
CHICAGO-MIDWAY SUNNY     61  48  62 W15G21    30.10R
AURORA         SUNNY     60  52  74 W12       30.13R
LANSING*       MOSUNNY   62  47  58 W13       30.11S
JOLIET*        SUNNY     63  51  64 W9G16     30.13R
WAUKEGAN       SUNNY     60  50  69 VRB6      30.07R
DUPAGE AIRPORT SUNNY     60  52  74 W12       30.10S
WHEELING       SUNNY     60  50  69 W10       30.11R
MORRIS*        MOSUNNY   62  50  65 W14       30.12S
ROMEOVILLE*    SUNNY     61  49  63 W12       30.12S
NORTHERLY ISL    N/A     61  47  59 W8          N/A
$$

LMZ740>746-251400-
SOUTHERN LAKE MICHIGAN

STATION/POSITION SKY/WX   TEMP    WIND        PRES    VSBY  WAVE
                          AIR SEA DIR/SP/G                  HT/PER
                          (F)     (DEG/KT/KT) (MB)    (MI)  (FT/S)
SOUTHERN BUOY              58 61  300/ 16/ 19 1016.7          4/ 5
WILMETTE HARBOR            60 64  270/ 12/ 16   N/A           1/ 2
HARRISON CRIB              60     280/ 16/ 18   N/A
BURNHAM HARBOR             61                   N/A
CALUMET HARBOR             61     260/  3/ 11 1018.8R
BURNS HARBOR               61     260/ 15/ 18 1019.6R
MICHIGAN CITY              60     250/ 19/ 23   N/A
MICHIGAN CITY 6N           61 66  270/ 16/ 19   N/A           4/ 5
ST. JOSEPH                 61 69  290/ 16/ 19 1018.8          5/ 5
$$

ILZ025>027-034>036-040-047-049-050-058-095>099-251400-
WEST-CENTRAL ILLINOIS

CITY           SKY/WX    TMP DP  RH WIND       PRES   REMARKS
QUINCY         SUNNY     64  51  62 NW7       30.20R
GALESBURG*     SUNNY     59  50  70 W8        30.19R
MACOMB*        SUNNY     61  51  69 W9        30.21R
JACKSONVILLE*  MOSUNNY   62  53  70 W5        30.19R
PITTSFIELD*    MOSUNNY   64  54  68 W5        30.21R
$$

ILZ028>032-037-038-041>044-048-051>054-059>061-251400-
CENTRAL ILLINOIS

CITY           SKY/WX    TMP DP  RH WIND       PRES   REMARKS
PONTIAC        MOSUNNY   64  50  61 W12G17    30.16R
BLOOMINGTON    MOSUNNY   64  48  56 W8        30.18R
DECATUR        SUNNY     63  51  65 W5        30.17S
PEORIA         SUNNY     63  51  65 W5        30.17S
LACON*         SUNNY     63  51  65 W7        30.16R
LINCOLN*       SUNNY     64  52  64 W3        30.18R
SPRINGFIELD    SUNNY     64  53  67 W7        30.19R
TAYLORVILLE    SUNNY     63  52  66 W8        30.19R
$$

ILZ033-039-045-046-055>057-062-063-251400-
EAST-CENTRAL ILLINOIS

CITY           SKY/WX    TMP DP  RH WIND       PRES   REMARKS
CHAMPAIGN      SUNNY     63  50  62 W7        30.17R
RANTOUL*       SUNNY     65  51  61 NW6       30.16S
MATTOON        SUNNY     64  53  67 W8        30.17R
PARIS*         SUNNY     62  54  76 W9        30.17S
$$

ILZ079-100>102-251400-
SOUTHWEST ILLINOIS

CITY           SKY/WX    TMP DP  RH WIND       PRES   REMARKS
ALTON          SUNNY     64  54  68 W12       30.21R
BELLEVILLE     SUNNY     69  50  51 W13       30.21S
CAHOKIA*       SUNNY     69  49  48 W9        30.21R
SPARTA*        SUNNY     68  49  50 W9G18     30.23R
$$

ILZ064>066-069>071-074>076-080>082-084>086-088>090-092>094-251400-
SOUTH-CENTRAL ILLINOIS

CITY           SKY/WX    TMP DP  RH WIND       PRES   REMARKS
CARBONDALE     SUNNY     65  59  81 SW6       30.22R
CAIRO*         SUNNY     67  59  76 CALM      30.23S
EFFINGHAM*     SUNNY     65  53  64 SW7       30.21S
MARION         SUNNY     68  57  68 W6        30.23R
MT. VERNON     MOSUNNY   67  54  63 SW9       30.21R
CENTRALIA*     MOSUNNY   68  53  57 W9        30.20R
SALEM*         SUNNY     69  50  51 W10       30.20R
METROPOLIS*    SUNNY     67  58  74 W3        30.24R
$$

ILZ067-068-072-073-078-083-087-091-251400-
SOUTHEAST ILLINOIS

CITY           SKY/WX    TMP DP  RH WIND       PRES   REMARKS
LAWRENCEVILLE  SUNNY     67  53  61 W8        30.18R
FLORA*         SUNNY     69  50  49 W12       30.19S
FAIRFIELD*     SUNNY     66  54  64 SW6       30.19S
HARRISBURG*    SUNNY     65  59  80 CALM      30.22R
ROBINSON*      SUNNY     63  53  70 NW7       30.19R
CARMI*         SUNNY     69  56  64 W6        30.20R
$$

ABBREVIATIONS USED IN REMARKS
   TC - TEMPERATURE IN CELSIUS
  WCI - WIND CHILL INDEX
   HX - HEAT INDEX
  VSB - VISIBILITY
$$





USA.gov is the U.S. government's official web portal to all federal, state and local government web resources and services.